COSMOS 1275 DEB, 12950

Orbit data source: Space-Track

COSMOS 1275 DEB, 12950 is space debris in LEO originally from a launch on Thu, 04 Jun 1981 UTC launched from the Plesetsk Missile And Space Complex (PKMTR). Debris objects in space refer to the collection of defunct objects orbiting the Earth. Examples of debris include non-operational satellites, rocket bodies, and fragments generated from explosions, collisions, or faulty payload assembly.

Loading next visibility...
Identifier
12950, 1981-053EE
Orbit
LEO
Country
Flag of CISCIS
Related business
Manufacturer
Unknown
Mission
Spacecraft
Bus & Motor
Unknown
Mass
Unknown
Launch date (UTC)
1981-06-04 (45 years ago)
Launch vehicle
Unknown
Launch site
Plesetsk Missile And Space Complex (PKMTR)
Object type
Payload
Rocket body
Debris
Shape & HBR
Unknown shape, 0.1 m
Radar Cross Section
Small (<0.1 m²)

Expand to show TLE details & history
Last TLE update: 9 hours ago

TLE from 9 hours ago
0 COSMOS 1275 DEB
1 12950U 81053EE  26118.76089137  .00000940  00000-0  45141-3 0  9994
2 12950  83.0073 118.3235 0053668  80.3134 100.4630 14.17186762293720
Epoch: 2026-04-28T18:15Z
TLE epoch observation values (Epoch: 2026-04-28T18:15:41.014Z)
Latitude
-1.49627°
Longitude
167.85364°
Altitude
845.282 km
Speed
7.426 km/s
True Right ascension
19h 54m 01s
True Declination
-1° 29' 15"
Sunlit
Object was in daylight at epoch
Visualization orbit readout
Latitude
Unknown
Longitude
Unknown
Altitude
Unknown
Speed
Unknown
Apparent Right ascension
Unknown
Apparent Declination
Unknown
Sunlit
N/A
Visualization observer readout
Local Sidereal Time
10:23:56
Azimuth
Unknown
Elevation
Unknown
Doppler factor
Unknown
Orbital elements
Apogee altitude
870.666 km
Perigee altitude
793.275 km
Semi-major axis
7,210.108 km
Eccentricity
0.00537
Inclination
83.0073°
RAAN
118.3235°
Arg. of periapsis
80.3134°
True anomaly
101.06702°
Mean anomaly
100.463°
Eccentric anomaly
100.76508°
Mean motion
3.54512 °/min
Orbital period
101.55 mins
BSTAR
0.00045141
Loading maneuver chart data...
Computing Atmospheric mass density...
Loading historical data...
Loading historical data...
Loading historical data...
Loading historical data...
Loading historical data...
Loading historical data...
Loading historical data...

Documentation

Showing up to 5 results
|